Voltar ao catálogo

FENGYUN 1C DEB

AtivoSSO
NORAD 30138·DEBRIS·🇨🇳 China

Lançado May 10, 1999 de Taiyuan Satellite Launch Center

Loading…

Próximas Passagens (próximas 24 horas)

TLE

AtualizadoSource: Space-Track

Época: Sep 13, 2026, 22:50 UTC

1 30138U 99025ST  26256.95160498  .00001115  00000-0  53460-3 0  9992
2 30138  98.7340 312.1884 0021131  69.4656 106.1436 14.20855116 13085

Acompanhe FENGYUN 1C DEB em tempo real com AllMySat

Download on the App Store